Tracking 20621 objects as of 31-Mar-2020
HD Live streaming from Space Station
objects crossing your sky now

AUREOLE 2

Track AUREOLE 2 now!
10-day predictions
AUREOLE 2 is classified as:


NORAD ID: 7003
Int'l Code: 1973-107A
Perigee: 372.6 km
Apogee: 909.9 km
Inclination: 73.9 °
Period: 97.4 minutes
Semi major axis: 7012 km
RCS: 2.1042 m2 (large)
Launch date: December 26, 1973
Source: France (FR)
Launch site: PLESETSK MISSILE AND SPACE COMPLEX (PKMTR)
aabbcc
Your satellite tracking list
Your tracking list is empty




NASA's NSSDC Master Catalog

Two Line Element Set (TLE):
1  7003U 73107A   20090.78797903 +.00000843 +00000-0 +35168-4 0  9991
2  7003 073.9263 172.4732 0383104 287.2502 068.7090 14.78485889363603
Source of the keplerian elements: AFSPC